GFSFLT1_sfc_wetblb_000.txt.gz
Wetbulb
75.01 74.95 75.41 75.28 75.34 75.35 75.76 75.88 75.35 75.68 74.99 73.96 73.80 74.57 73.99 73.58 72.74 72.88 72.96 72.76 74.13 74.39 73.53 72.38 72.03 71.42 71.01 71.25 70.63 69.86 69.21 68.41 67.08
74.10 74.84 73.62 74.31 74.68 74.98 75.00 74.61 75.05 74.54 75.46 74.22 73.80 74.50 73.74 71.77 70.58 70.88 71.15 73.33 74.42 73.26 72.22 71.25 70.37 70.12 69.44 69.87 68.09 68.22 68.29 67.68 67.31
74.73 73.36 72.86 73.07 73.51 73.73 74.15 74.36 73.91 74.11 74.44 74.53 73.55 73.02 72.57 71.26 69.13 70.79 71.29 73.34 73.71 72.69 71.65 70.02 69.34 68.68 68.53 68.22 67.43 67.61 67.29 67.05 66.23
72.49 74.04 72.44 72.46 72.86 72.73 73.33 73.32 73.44 73.84 73.10 74.14 73.34 72.26 71.33 70.19 69.99 69.84 70.71 73.27 73.64 72.35 70.78 69.77 68.77 68.17 67.11 66.16 66.85 66.97 67.12 67.24 66.32
69.56 72.10 71.42 72.82 72.80 72.47 73.20 72.61 72.35 73.19 73.17 73.89 73.42 71.99 70.10 69.27 67.88 67.60 70.24 71.92 72.32 72.46 70.40 68.77 68.21 67.98 67.01 66.91 66.58 66.90 66.99 66.55 67.26
61.62 67.51 70.65 71.26 72.73 71.72 73.11 72.48 72.13 72.60 72.90 73.12 72.92 72.07 67.50 68.47 68.24 70.39 70.71 71.93 72.41 71.95 70.57 69.21 67.94 66.97 67.72 67.33 67.37 66.79 67.38 66.85 67.73
62.47 63.74 67.79 68.72 69.58 69.52 69.91 72.03 72.14 71.20 70.29 70.52 72.35 69.55 69.63 69.13 69.43 69.74 71.16 72.02 72.35 72.05 71.26 69.98 68.58 67.19 67.12 67.64 67.26 67.07 66.62 66.17 66.01
54.71 55.55 56.53 58.99 63.86 60.32 62.11 61.97 63.92 65.53 67.93 69.29 69.41 69.53 69.36 69.43 70.08 70.22 71.97 72.55 71.77 71.31 71.96 70.58 68.86 68.11 67.89 67.78 67.64 67.86 66.76 67.01 65.96
51.82 52.83 53.10 54.60 55.77 55.50 56.52 57.82 58.87 59.47 67.01 67.63 68.38 68.55 68.38 68.19 68.68 70.26 71.58 71.93 71.08 70.63 70.96 71.20 69.27 68.51 68.04 68.36 67.89 67.55 67.34 66.39 66.76
51.31 51.14 51.64 52.13 53.09 53.39 53.13 53.49 54.77 56.42 57.92 64.26 67.54 67.81 68.56 68.25 68.57 68.54 70.93 71.40 71.25 70.85 71.19 71.63 69.65 68.82 68.17 68.32 68.21 67.93 66.97 66.41 66.85
50.34 50.39 50.44 50.66 51.27 51.77 52.46 53.13 53.63 54.61 56.60 57.80 64.25 67.14 66.87 67.65 68.21 67.86 68.37 70.72 70.90 70.65 70.80 71.69 70.24 69.12 68.47 68.11 68.91 68.08 66.36 66.51 66.61
49.51 49.68 49.42 49.90 50.35 51.28 51.49 51.97 53.08 54.04 55.97 56.55 58.47 63.54 65.97 66.48 67.20 68.12 68.05 67.99 69.78 70.24 70.94 71.87 70.90 69.68 68.74 68.13 68.83 68.02 66.90 66.68 66.29
49.05 49.46 49.32 49.66 50.05 50.49 50.30 50.14 50.95 51.65 52.86 54.13 56.64 59.21 64.36 65.11 66.34 67.18 68.35 67.15 66.74 68.64 69.92 71.13 71.46 70.41 69.25 68.75 69.10 68.26 67.75 66.36 66.63
48.39 49.06 48.99 49.08 48.94 48.85 49.35 48.97 48.88 48.88 50.03 51.54 52.55 53.68 57.88 64.81 65.84 65.52 66.21 67.45 66.97 65.91 68.40 69.62 70.04 71.29 69.81 69.30 69.57 68.71 67.24 67.01 66.35
48.32 48.80 48.40 48.72 47.77 47.36 47.44 46.96 48.10 48.78 49.98 52.07 52.49 53.38 55.29 57.89 62.89 64.59 65.53 66.19 66.86 65.98 65.10 66.41 67.39 70.19 70.68 69.87 69.56 68.40 67.99 67.22 66.46
47.27 47.57 47.64 47.62 46.77 46.25 46.98 46.69 46.43 46.70 48.25 48.53 49.05 50.92 52.66 53.42 56.74 62.44 64.64 65.14 66.14 66.14 65.22 64.92 64.90 67.10 69.71 69.21 69.96 69.54 68.67 67.66 66.81
47.32 45.76 46.08 46.14 45.62 45.51 45.76 45.55 44.70 45.67 46.97 44.77 45.16 43.12 46.74 50.61 53.47 57.82 62.16 63.73 65.10 65.04 65.34 64.78 63.73 63.55 66.36 66.35 68.18 68.37 68.48 68.09 67.20
46.14 45.67 45.01 44.56 44.49 43.98 44.30 44.59 44.04 43.09 44.84 45.35 44.76 41.59 40.89 45.25 48.88 51.20 52.78 60.71 62.68 63.98 64.40 64.51 63.84 63.83 65.13 66.01 66.33 65.95 67.82 68.59 67.84
45.90 45.50 44.95 44.37 43.98 43.05 43.31 45.80 43.55 42.96 42.43 44.25 47.19 45.72 45.77 42.76 42.67 49.01 51.21 53.50 60.45 62.01 63.47 64.15 64.37 64.48 64.75 65.28 65.31 65.80 66.70 67.70 68.29
45.58 45.00 44.36 43.88 43.74 43.57 43.65 43.63 43.34 44.05 43.33 43.49 43.65 43.63 44.51 45.71 45.03 43.73 46.80 50.57 55.55 61.25 62.39 63.51 63.64 64.51 63.86 63.83 64.36 65.77 66.04 66.69 67.39

GFSFLT1_sfc_wetblb_003.txt.gz
Wetbulb
74.61 72.98 74.29 75.01 75.35 75.57 75.58 75.75 75.01 75.10 74.63 74.27 74.26 74.57 74.07 74.42 72.25 71.60 72.94 71.88 74.80 74.55 74.18 73.57 72.75 72.26 72.28 71.48 71.12 70.88 69.72 69.64 67.78
73.36 72.43 73.01 73.25 73.28 73.35 74.25 74.92 74.59 74.45 74.74 74.04 74.24 74.53 73.22 70.51 69.33 70.00 70.77 72.22 75.02 74.63 73.66 72.63 71.90 71.04 70.82 69.90 69.82 69.10 68.43 67.95 67.74
73.03 73.64 73.14 72.48 72.74 72.70 72.72 72.81 73.77 74.27 74.04 74.70 73.99 74.35 71.74 69.65 69.11 70.40 71.30 74.19 74.95 74.31 73.20 71.80 70.51 69.97 69.57 69.05 68.38 69.23 67.73 67.33 67.19
70.53 71.38 72.79 73.65 73.45 72.89 72.21 71.21 71.94 73.13 73.88 73.78 73.58 72.61 70.75 67.70 68.57 69.85 70.04 73.95 74.64 74.15 72.53 71.29 70.32 69.48 68.99 67.01 68.19 68.15 67.60 67.34 67.08
65.60 66.82 69.52 70.96 71.66 71.57 72.98 71.79 72.12 72.56 72.85 73.46 73.79 72.58 70.96 68.37 68.11 67.03 69.87 71.74 73.04 73.94 72.29 71.31 70.15 69.18 68.21 67.89 68.26 68.31 68.23 67.52 67.55
57.46 63.41 66.24 66.72 68.94 68.40 69.84 70.51 71.58 71.84 71.97 72.39 73.36 72.34 67.63 65.72 66.05 66.89 69.92 71.98 72.92 73.64 72.27 70.92 69.99 69.53 68.71 68.86 68.54 68.76 68.33 67.84 68.60
57.11 58.70 61.94 63.18 64.11 64.05 64.01 64.12 64.78 67.55 66.46 68.11 70.97 69.91 67.47 66.50 68.01 68.69 70.45 71.26 72.80 73.09 72.48 71.02 69.97 68.89 69.00 69.35 69.18 68.67 68.57 68.09 68.00
51.40 51.23 52.24 53.47 58.94 55.71 56.09 55.08 55.31 56.39 60.37 66.24 66.72 68.48 68.89 67.79 68.23 69.12 70.63 71.62 71.89 73.14 72.80 71.57 70.05 68.63 69.01 69.40 68.94 68.64 68.41 67.50 66.77
48.97 49.42 50.08 50.99 51.93 51.28 51.56 51.93 53.01 53.57 54.71 57.67 64.70 66.03 66.89 67.84 69.46 70.19 71.82 72.04 72.18 72.96 72.62 72.55 71.05 69.49 69.16 69.02 68.95 68.98 68.38 67.51 67.12
48.59 48.70 49.18 49.55 50.15 50.12 50.14 50.32 51.64 52.32 54.02 55.04 57.92 62.03 66.59 68.12 69.38 69.90 71.17 72.04 72.32 72.39 72.10 72.40 72.05 70.14 69.26 69.09 69.57 69.48 68.63 67.54 67.45
47.95 48.41 48.71 48.83 48.72 49.64 49.84 49.72 50.09 51.27 52.03 53.77 55.33 57.27 62.48 66.75 67.69 68.26 68.48 70.86 71.81 71.98 71.76 72.61 72.10 70.79 69.39 69.74 69.57 69.41 68.86 68.09 67.11
47.03 47.93 48.03 48.12 48.52 49.56 49.49 49.22 49.51 49.56 51.03 49.86 51.67 52.56 56.21 61.18 65.25 66.86 67.76 68.68 69.72 70.73 71.44 71.86 72.26 71.32 69.95 69.44 69.74 70.00 69.56 67.47 67.54
46.69 47.39 47.37 47.72 48.28 48.70 48.24 47.54 47.50 47.31 47.36 47.91 49.63 50.32 52.31 53.58 58.08 64.48 66.77 67.79 68.49 68.95 69.85 70.81 71.74 71.65 70.39 69.99 70.44 69.87 69.73 67.95 67.20
46.12 46.93 46.80 47.28 46.90 46.50 46.71 46.62 46.27 46.32 46.99 48.57 49.47 50.35 51.73 53.43 56.45 58.77 63.51 66.11 66.95 67.27 68.25 69.69 70.16 71.27 71.02 70.39 69.88 70.00 69.01 68.50 67.69
45.45 46.17 46.41 46.35 45.78 45.56 45.48 44.67 45.88 45.40 46.13 49.38 48.47 47.87 49.69 49.12 51.19 53.76 56.89 59.87 64.98 66.68 66.40 66.89 67.93 70.17 70.89 70.92 70.08 69.93 69.28 68.38 68.78
44.65 44.84 45.42 45.52 44.81 44.22 44.93 44.64 43.84 43.82 45.32 44.59 45.15 44.67 46.33 46.37 47.83 51.78 50.76 53.59 60.22 64.77 66.17 65.56 66.43 67.43 69.54 69.86 70.64 70.39 70.18 68.06 67.81
45.15 43.72 44.05 44.05 43.39 43.17 42.95 43.29 42.05 43.19 43.98 42.78 42.24 39.56 42.08 44.17 47.09 47.55 48.37 50.51 54.27 55.72 63.83 65.30 64.99 65.35 66.43 67.37 68.42 68.66 70.46 69.12 68.02
44.21 43.51 43.01 42.77 42.43 41.89 41.99 42.01 41.68 40.50 41.74 42.45 42.26 38.58 36.48 41.83 44.96 44.99 46.04 48.87 52.13 54.94 56.67 63.82 64.76 64.77 64.78 67.20 66.72 66.77 68.68 69.69 69.06
43.89 43.61 42.86 42.21 41.98 41.59 41.60 44.47 41.88 41.08 40.13 41.27 44.15 43.40 43.55 39.61 37.73 42.71 44.16 46.80 50.63 51.20 54.30 55.26 63.11 63.92 63.77 65.76 66.27 66.72 67.23 67.96 69.21
43.69 43.26 42.29 41.96 41.71 41.92 41.83 42.05 41.62 41.44 40.30 40.18 41.03 42.22 41.90 41.90 40.67 38.45 40.38 43.75 47.99 50.90 51.45 51.98 52.04 62.55 63.66 63.89 65.82 66.45 66.84 66.89 68.00

GFSFLT1_sfc_wetblb_009.txt.gz
Wetbulb
70.61 70.23 70.09 70.54 70.85 71.02 73.11 74.12 74.58 74.17 73.59 73.54 73.64 73.70 73.77 73.04 68.87 69.94 71.17 71.35 74.03 75.06 74.60 73.97 73.66 73.29 72.93 72.05 70.93 71.24 71.44 70.55 69.23
70.33 70.68 70.32 70.17 70.15 69.93 70.62 71.47 72.92 73.91 74.05 73.68 73.57 73.67 73.18 69.30 68.44 69.35 69.94 71.38 74.46 74.36 74.62 73.94 73.48 72.86 72.06 70.92 70.81 71.14 71.03 69.93 68.47
68.27 68.92 68.78 68.74 68.88 69.33 70.13 70.59 70.18 71.30 73.13 73.85 73.96 73.65 71.81 68.76 68.07 68.86 69.54 71.79 73.43 74.14 73.75 73.68 72.96 72.43 71.59 70.73 70.30 70.36 69.42 68.65 67.60
65.98 66.86 67.35 66.98 67.60 67.29 68.09 69.63 68.28 66.94 70.45 72.51 73.49 73.18 71.45 66.75 67.48 68.45 68.12 71.17 73.34 73.54 73.03 72.70 72.73 71.73 70.75 69.61 69.25 69.04 69.12 68.48 67.01
63.46 63.78 65.02 64.94 64.90 64.98 64.91 65.00 64.27 63.82 66.06 67.80 70.53 72.70 72.07 68.06 66.98 66.77 66.66 70.34 72.08 72.76 72.17 72.51 72.20 71.26 70.53 69.48 68.30 68.80 69.33 67.82 67.51
54.12 61.24 62.40 62.56 62.32 62.32 62.52 62.39 61.92 60.89 61.22 63.23 65.27 67.27 68.57 69.02 66.64 66.60 67.74 70.04 71.12 71.27 72.22 71.84 71.83 71.21 70.63 69.15 68.37 68.56 68.98 67.81 67.74
53.38 56.65 58.95 59.68 59.17 59.47 59.66 59.72 58.50 55.80 52.61 54.13 58.36 58.42 61.67 66.20 67.51 66.45 69.60 70.81 71.66 71.60 71.86 72.14 71.72 71.53 70.58 69.54 68.96 68.82 68.82 67.91 67.42
47.49 47.75 48.05 48.17 54.41 49.71 50.93 49.87 50.14 49.68 50.60 51.04 51.72 53.72 56.01 59.30 62.75 66.82 69.46 70.80 71.55 72.00 72.23 71.97 71.85 71.76 71.05 70.22 69.32 68.95 68.66 68.63 67.27
45.74 46.21 46.54 46.45 46.97 47.08 46.89 46.72 47.45 47.70 48.40 47.16 47.45 48.65 50.83 53.71 56.44 59.64 63.13 65.90 69.29 71.33 71.48 71.90 71.69 71.80 71.26 70.29 69.77 69.29 69.03 68.79 67.83
45.80 45.64 46.06 45.47 46.17 46.22 45.51 45.59 46.12 45.93 46.82 46.31 46.18 46.80 47.76 50.12 53.13 55.46 59.70 61.41 65.11 67.73 69.96 70.80 71.34 71.85 71.75 70.38 70.91 70.14 69.44 68.89 68.51
45.38 45.23 45.34 44.92 45.13 45.65 45.01 44.76 44.82 44.32 44.89 45.58 46.20 46.09 46.25 48.23 49.35 51.73 51.87 58.23 60.28 62.54 64.87 67.69 69.75 70.57 71.58 71.21 71.37 71.33 70.64 69.99 69.55
44.80 44.65 44.35 44.16 44.82 45.59 45.15 44.53 44.76 43.49 45.10 43.18 45.04 45.63 46.37 46.02 44.54 47.48 50.00 52.43 54.17 55.77 57.56 60.90 64.72 68.26 70.74 71.39 71.55 71.28 71.06 70.39 69.98
44.29 44.36 43.97 44.71 44.90 45.15 44.41 43.54 43.81 42.75 42.58 42.02 42.24 43.30 44.62 43.52 43.91 46.38 49.03 46.95 49.03 50.14 54.16 57.17 60.13 62.13 66.22 70.86 71.14 71.33 71.09 70.75 70.13
43.45 43.72 43.42 44.68 44.08 43.39 43.94 42.84 43.12 41.72 41.96 44.15 42.47 42.25 42.64 42.67 43.89 41.73 46.10 45.61 46.37 46.25 51.66 54.49 56.15 58.97 62.84 66.09 70.65 70.86 71.16 70.90 70.59
42.52 42.55 42.77 43.71 43.21 42.14 42.60 41.15 42.21 41.71 41.28 44.91 43.72 41.32 42.05 41.58 41.13 42.05 44.55 45.11 44.34 45.36 48.51 47.27 50.11 57.06 59.55 61.45 65.76 70.51 70.54 70.99 70.68
41.84 41.50 42.16 42.66 42.19 41.17 41.90 41.02 40.73 40.03 41.00 39.98 38.87 38.91 39.89 38.05 40.21 40.49 42.80 43.58 44.12 44.52 45.60 46.47 48.68 52.92 57.81 57.49 59.50 62.28 70.92 70.82 70.47
42.32 41.15 41.20 41.63 40.79 40.24 39.79 39.64 38.88 39.67 40.25 38.11 36.48 33.32 35.73 37.42 41.15 40.63 42.21 40.49 41.80 44.13 45.36 46.23 46.34 49.21 50.98 53.15 55.99 57.44 61.77 70.89 70.62
41.89 41.00 40.52 40.10 39.79 39.57 39.06 38.95 38.22 37.07 38.80 39.19 37.81 33.73 31.41 37.81 37.36 38.64 39.72 39.39 40.59 42.05 43.44 44.89 46.05 46.65 48.61 52.92 53.13 54.68 58.26 63.55 70.55
41.45 41.49 40.49 39.66 39.39 38.78 38.80 41.42 39.07 38.21 36.97 37.62 41.35 39.26 37.96 34.81 34.78 37.67 38.92 40.10 41.94 42.07 43.17 44.24 44.82 45.28 46.19 51.95 54.30 54.38 55.93 58.29 68.68
41.53 40.83 40.02 39.55 39.19 39.00 38.83 38.49 38.25 38.19 37.07 36.64 37.05 37.05 37.66 37.22 37.03 34.74 37.90 41.21 41.68 42.72 43.03 43.60 43.88 44.52 46.24 50.62 53.15 53.78 54.84 56.25 58.16

GFSFLT1_sfc_wetblb_015.txt.gz
Wetbulb
70.27 70.66 70.80 70.68 70.93 71.89 71.93 72.83 74.17 74.64 74.57 74.08 74.09 74.50 73.58 72.20 73.60 73.95 73.80 74.24 73.85 73.71 72.62 72.49 73.12 73.43 72.53 72.33 71.74 71.17 70.56 69.75 68.81
69.18 69.03 69.26 69.54 71.28 71.27 69.59 70.20 72.40 73.33 73.75 74.25 73.88 74.15 72.50 72.82 72.70 73.13 73.49 73.80 73.68 73.31 72.43 71.66 72.34 72.47 72.25 71.34 69.77 69.88 70.69 69.45 68.45
68.49 68.37 67.69 67.99 68.44 68.74 67.89 67.73 69.37 70.12 71.37 72.99 74.12 72.99 71.19 71.63 71.82 71.75 71.54 72.05 72.97 73.67 72.36 71.85 72.07 71.90 72.03 70.88 70.34 70.02 70.38 69.05 67.16
67.01 66.85 66.50 66.28 66.38 66.67 66.44 65.82 66.74 67.66 67.99 69.24 71.80 72.43 71.26 71.83 71.14 70.85 71.53 71.65 72.77 73.03 73.01 71.84 71.68 71.72 71.63 71.38 70.62 69.66 69.71 69.37 67.77
64.84 64.52 64.51 64.47 64.53 64.54 64.17 63.43 62.83 64.11 64.83 64.92 65.19 65.83 67.36 69.97 70.01 69.68 70.11 71.59 72.32 72.48 71.94 72.41 71.77 71.82 72.02 71.12 69.87 69.48 69.57 69.48 67.74
62.08 62.40 62.38 62.65 62.36 61.99 61.55 60.84 59.46 58.29 60.09 60.95 60.91 61.03 60.86 64.54 66.13 66.42 68.02 70.74 72.17 72.24 72.36 71.81 72.30 71.59 72.25 71.70 70.66 69.30 69.06 69.35 68.05
58.64 59.77 59.89 59.45 59.29 58.99 58.79 57.58 56.49 55.55 54.81 55.06 56.61 56.61 57.36 59.42 62.58 62.43 64.78 67.68 70.19 70.70 71.34 71.90 71.98 71.82 72.32 72.13 71.15 69.26 68.93 69.51 68.70
53.33 53.67 53.61 53.68 54.19 52.82 53.10 52.76 53.24 53.61 53.54 53.46 53.11 53.16 53.68 55.60 57.08 59.84 62.73 64.37 66.31 67.23 67.37 68.09 68.85 69.96 71.37 72.12 71.78 70.29 69.71 69.34 69.19
52.23 52.51 52.54 52.42 52.15 51.66 51.64 51.24 51.44 51.35 51.95 52.58 51.43 51.20 51.95 52.55 53.84 57.07 57.99 60.04 61.37 62.77 64.19 65.25 66.13 67.05 68.24 69.69 71.54 71.34 70.21 69.86 69.27
52.27 51.69 52.06 51.87 51.86 51.38 50.80 50.70 50.46 50.29 49.81 49.95 49.72 50.16 50.54 50.91 52.35 53.51 55.13 56.38 57.51 59.10 60.71 61.72 62.92 64.07 65.30 66.40 68.07 69.89 71.21 70.69 69.88
52.10 51.45 51.46 51.63 51.81 51.13 50.84 49.86 49.68 49.70 49.42 49.08 49.13 49.57 50.03 50.39 50.06 50.70 51.91 53.24 54.27 55.86 57.65 58.88 59.60 60.76 62.42 63.88 65.30 66.90 68.96 71.12 71.27
51.76 51.31 50.99 51.44 51.55 50.81 50.57 50.25 49.41 49.17 49.37 48.72 49.00 49.01 49.84 49.66 48.66 50.00 50.87 51.19 51.09 52.72 54.95 56.14 56.83 57.87 59.54 61.58 63.49 64.44 65.51 67.46 70.49
51.60 51.06 51.05 51.31 51.41 51.41 50.11 49.96 49.07 48.56 48.56 48.69 49.10 48.76 50.34 49.41 48.40 48.96 50.01 50.60 50.24 50.18 52.73 53.74 54.62 55.96 57.00 58.20 60.26 60.96 62.48 64.59 65.91
51.17 50.94 51.03 51.16 50.58 50.73 49.81 49.38 49.32 48.25 48.12 47.83 48.97 48.42 49.51 49.88 48.91 48.18 49.11 49.87 50.41 49.98 50.51 51.46 51.89 54.21 55.48 56.35 56.90 57.59 59.22 61.54 63.00
50.63 50.27 50.49 50.55 49.80 49.66 49.38 48.46 49.02 48.48 47.65 47.02 46.86 47.80 49.11 49.93 49.00 48.24 48.40 49.03 49.97 49.83 50.51 50.89 50.70 51.53 53.13 54.20 55.31 56.50 57.77 58.15 59.86
49.84 49.55 49.57 50.21 49.40 49.17 48.89 48.68 47.95 47.70 47.87 46.46 45.76 47.00 47.61 48.13 48.46 48.66 48.10 48.20 48.94 48.79 49.72 49.95 50.30 50.33 51.35 51.86 53.63 55.84 56.39 56.96 58.13
48.75 48.99 48.95 49.53 48.67 48.32 47.91 48.17 47.23 47.53 47.53 44.31 44.17 41.72 44.87 46.72 46.61 47.25 47.17 47.12 48.16 47.92 48.71 49.05 49.61 50.12 50.18 50.41 51.48 51.88 54.68 56.60 57.28
48.64 48.31 48.44 48.64 48.50 47.77 47.59 47.70 47.09 45.50 46.66 45.87 44.48 41.22 39.82 41.93 45.96 45.83 46.59 46.70 46.91 47.42 48.11 48.53 48.99 49.55 49.63 50.11 50.27 50.38 52.61 55.22 56.91
48.30 47.84 47.83 48.12 47.87 47.36 47.28 47.23 47.11 46.43 44.59 45.74 45.52 46.29 44.92 40.51 39.51 45.11 45.47 46.55 45.84 46.75 47.33 47.93 48.60 49.21 49.25 49.88 50.44 51.09 52.04 53.42 55.53
47.64 47.40 47.24 47.07 47.37 47.43 47.19 46.62 46.26 46.41 45.57 44.80 44.92 44.58 44.44 44.44 41.81 38.73 42.07 45.03 46.20 46.87 46.83 47.50 48.17 48.77 49.15 49.44 50.04 51.03 52.19 53.25 54.15

GFSFLT1_sfc_wetblb_021.txt.gz
Wetbulb
70.20 70.57 72.07 71.72 70.50 71.92 72.67 73.05 73.61 74.45 74.65 74.47 74.97 73.54 73.38 74.08 73.82 74.00 74.25 74.03 74.04 73.57 72.99 72.95 72.44 72.08 72.29 71.93 71.77 70.97 69.96 69.18 68.28
69.55 69.10 69.31 69.76 69.03 69.22 70.82 71.63 72.40 73.00 74.45 74.78 73.99 72.93 73.13 72.78 72.89 72.90 72.58 73.21 73.86 74.17 72.93 72.13 71.76 71.61 71.60 71.79 70.57 70.07 70.24 69.23 67.72
68.18 67.89 67.92 68.09 67.93 67.69 68.33 69.45 70.14 71.13 73.43 74.08 73.08 72.89 73.36 73.01 72.19 71.34 72.30 72.33 72.69 73.35 73.40 72.11 71.55 71.78 71.50 71.50 70.14 70.00 70.56 68.93 67.76
67.26 66.70 66.72 66.71 66.71 66.32 66.18 67.17 67.80 68.57 70.02 71.13 71.73 71.56 72.38 71.51 71.35 70.25 71.21 72.55 71.81 72.51 72.58 72.48 72.02 71.61 71.41 71.85 70.77 70.06 69.87 69.34 67.56
65.31 65.77 65.11 65.09 64.76 64.54 63.69 64.06 65.20 65.77 66.06 66.45 66.81 67.36 70.64 70.69 70.87 68.97 69.43 71.79 72.74 72.73 72.74 72.15 72.37 71.94 71.72 72.08 71.51 70.57 69.32 69.74 69.50
64.35 63.71 63.39 63.05 62.65 62.03 61.23 60.66 59.64 61.26 63.21 62.92 62.75 65.47 68.98 69.43 68.87 67.54 67.74 70.19 70.96 71.19 71.25 71.68 72.04 72.52 72.62 72.34 71.98 70.51 69.39 69.12 69.64
63.07 62.02 61.30 60.70 59.70 58.67 57.80 57.02 57.16 60.42 60.48 61.03 61.97 63.57 65.84 66.96 66.12 63.52 64.33 66.46 68.39 68.94 68.97 69.62 70.10 70.71 70.88 72.21 72.27 71.78 69.85 68.97 69.62
61.07 59.37 58.62 57.55 56.65 56.79 57.05 56.95 56.51 56.88 58.02 58.16 58.50 59.69 60.84 62.49 63.34 59.88 61.00 62.56 64.54 65.58 66.02 66.28 66.51 67.43 68.48 69.71 70.08 71.92 71.06 69.79 70.07
57.60 57.25 57.22 57.00 56.68 55.66 55.80 55.25 55.15 55.26 54.49 53.91 53.80 54.99 56.57 58.27 59.97 56.94 57.83 59.55 61.17 62.66 63.49 63.70 64.16 64.80 65.68 66.76 68.56 69.96 70.45 71.07 70.47
57.52 57.04 56.66 56.30 56.15 55.61 55.10 54.98 54.48 53.82 52.92 52.74 52.86 53.08 53.03 54.03 55.42 56.69 55.20 56.27 58.10 59.57 60.54 61.01 61.58 62.29 63.17 64.59 66.38 66.77 67.41 69.52 70.70
57.48 56.83 56.47 56.06 55.75 55.45 54.89 54.35 54.22 53.71 53.26 52.76 52.41 52.87 53.09 53.26 53.09 54.31 54.91 54.08 54.45 56.52 57.46 58.25 58.89 59.65 60.45 60.95 62.52 62.88 63.97 65.66 67.66
57.41 56.83 56.24 55.97 55.58 54.20 54.25 53.25 53.50 53.42 53.00 52.42 52.69 52.77 52.75 52.84 51.92 53.24 54.13 54.49 53.78 53.57 54.29 55.76 56.48 57.31 58.12 58.63 59.10 59.60 60.39 61.54 64.11
57.33 56.78 56.21 56.27 55.54 54.95 54.29 53.78 53.12 52.95 52.64 52.31 52.89 52.60 52.37 52.17 51.51 52.50 52.97 53.65 53.26 53.88 52.89 53.12 53.83 55.02 56.52 57.22 57.38 57.47 57.95 59.34 60.47
57.26 56.67 56.45 56.06 55.25 54.52 54.02 53.48 53.19 52.42 52.56 52.15 51.43 52.28 52.07 52.36 51.68 51.43 52.64 53.67 53.64 53.73 53.24 52.27 53.31 52.77 54.64 55.82 56.58 56.90 57.78 58.18 58.37
57.47 57.19 56.80 55.39 54.80 54.26 53.92 52.86 52.82 52.38 51.85 50.58 50.13 51.70 52.05 52.30 52.41 51.67 51.97 53.27 52.95 53.58 53.77 54.38 53.40 52.43 53.08 54.23 55.32 56.31 57.60 57.85 58.02
57.46 57.06 56.10 56.06 55.00 54.15 54.21 52.89 52.26 51.77 51.90 50.22 51.33 51.28 51.23 50.50 51.57 52.08 51.35 52.95 52.20 52.40 53.38 53.60 53.51 52.75 53.84 54.01 53.78 55.17 56.36 56.93 57.59
55.93 56.12 55.97 55.38 55.09 54.50 53.56 54.14 51.70 51.44 51.35 48.56 48.90 47.90 49.46 50.28 50.37 51.11 50.43 50.32 51.42 51.06 51.37 51.25 52.07 53.41 53.28 54.64 52.63 53.35 54.04 55.63 57.10
55.96 55.75 55.12 54.83 55.09 54.05 54.16 53.72 53.61 50.65 51.03 49.65 47.96 46.12 46.07 47.39 49.89 49.81 50.11 50.38 50.48 50.86 51.04 50.94 51.57 51.59 52.09 54.22 54.65 54.08 53.08 54.39 55.80
55.50 55.00 54.98 54.60 54.67 53.60 53.78 53.23 52.46 52.19 49.60 49.75 48.93 48.59 47.45 44.38 43.84 48.94 49.31 49.94 48.91 50.03 51.27 50.95 50.78 51.25 52.06 53.97 55.26 54.07 53.08 53.31 54.54
55.15 54.46 54.30 54.16 54.29 53.55 53.20 52.39 51.07 51.43 50.25 50.04 48.96 48.27 48.01 47.48 44.77 42.63 46.05 48.64 49.49 49.93 50.01 50.55 50.87 51.18 51.92 52.11 53.33 54.98 53.09 53.23 53.87